User: anonymous
Location: Heilwood
(40.6210°N, 78.9150°W)
Time: 20:13:13
(UTC-04:00)
Language:

Iridium 4 Rocket - Orbit

View from above orbital plane
View from above orbital plane
View from above satellite
View from above satellite

Ground track
Ground track

The orbit data is extracted from the following two-line orbital elements,

1 24797U 97020F   14107.01872296  .00000502  00000-0  10436-3 0  6424
2 24797 086.8974 056.8849 0227378 212.8728 193.7014 14.43020210891002
Epoch (UTC): 17 April 2014 00:26:57
Eccentricity: 0.0227378
inclination: 86.8974°
perigee height: 586 km
apogee height: 910 km
right ascension of ascending node: 56.8849°
argument of perigee: 212.8728°
revolutions per day: 14.43020210
mean anomaly at epoch: 193.7014°
orbit number at epoch: 89100

The dashed part of the orbit path shows where the satellite is in the earth's shadow,  

DLR